Date,TemperatureHighF,TemperatureAvgF,TemperatureLowF,DewpointHighF,DewpointAvgF,DewpointLowF,HumidityHigh,HumidityAvg,HumidityLow,PressureMaxIn,PressureMinIn,WindSpeedMaxMPH,WindSpeedAvgMPH,GustSpeedMaxMPH,PrecipitationSumIn
2013-1-1,31.7,24.4,9.8,26.0,14.8,2.0,83,67,52,29.98,29.74,9,2,12,0.00
2013-1-2,22.9,11.4,0.3,14.0,4.0,-9.0,84,72,59,30.20,29.95,6,1,11,0.00
2013-1-3,16.4,7.2,-5.9,8.0,-2.3,-11.0,86,67,38,30.22,30.06,5,0,7,0.00
2013-1-4,35.3,25.9,11.6,22.0,18.7,8.0,93,75,58,30.05,29.86,5,1,14,0.00
2013-1-5,35.1,28.0,14.8,24.0,18.9,12.0,89,70,48,30.31,29.87,7,1,11,0.00
2013-1-6,37.3,28.0,14.6,27.0,23.0,12.0,90,81,67,30.26,29.99,6,1,13,0.00
2013-1-7,32.5,25.2,11.9,28.0,18.5,9.0,92,77,49,30.44,30.02,3,0,11,0.00
2013-1-8,41.3,28.3,15.2,25.0,20.8,13.0,90,75,52,30.44,30.32,9,1,15,0.00
2013-1-9,40.7,29.0,15.1,32.0,23.4,13.0,93,81,61,30.47,30.05,6,1,13,0.00
2013-1-10,41.5,36.3,27.8,28.0,24.5,23.0,83,63,51,30.59,30.08,9,2,14,0.00
2013-1-11,34.7,29.0,20.2,31.0,24.5,18.0,95,84,62,30.59,30.27,5,1,11,0.14
2013-1-12,40.6,34.8,31.9,39.0,33.8,31.0,98,96,92,30.27,30.18,2,0,8,0.00
2013-1-13,46.7,40.5,33.7,46.0,39.8,33.0,98,97,95,30.20,30.02,7,1,13,0.00
2013-1-14,56.0,43.4,32.2,49.0,37.6,26.0,98,82,47,30.30,29.88,6,1,18,0.00
2013-1-15,35.7,30.9,24.9,28.0,24.5,22.0,93,78,62,30.38,30.27,4,0,5,0.00
2013-1-16,30.1,28.3,26.2,28.0,26.2,24.0,95,91,81,30.31,29.86,2,0,4,0.00
2013-1-17,38.2,29.1,20.6,30.0,21.7,4.0,96,75,49,30.16,29.87,3,1,11,0.21
2013-1-18,20.1,13.8,5.6,7.0,0.9,-3.0,78,58,38,30.48,30.10,10,1,14,0.00
2013-1-19,41.1,31.6,17.4,26.0,18.6,7.0,69,59,45,30.39,29.90,12,2,18,0.02
2013-1-20,45.4,35.1,22.3,31.0,21.5,7.0,76,59,32,29.96,29.57,11,2,22,0.07
2013-1-21,23.2,19.0,14.1,16.0,6.2,-2.0,92,60,44,30.11,29.85,6,1,13,0.00
2013-1-22,19.4,14.5,6.1,16.0,6.8,-6.0,91,73,44,30.11,29.82,6,1,13,0.00
2013-1-23,8.6,3.7,-2.0,-6.0,-12.5,-16.0,58,47,34,30.20,30.10,6,1,15,0.00
2013-1-24,13.7,3.9,-4.7,-7.0,-12.0,-15.0,64,49,33,30.31,30.16,6,2,13,0.00
2013-1-25,17.4,9.6,1.3,6.0,-7.7,-11.0,78,47,29,30.38,30.14,6,1,11,0.00
2013-1-26,18.3,11.6,5.4,6.0,-1.0,-9.0,84,59,33,30.31,30.09,5,1,13,0.00
2013-1-27,25.1,14.9,7.3,3.0,0.5,-3.0,74,56,32,30.55,30.31,6,1,12,0.00
2013-1-28,23.6,18.4,11.8,19.0,10.4,0.0,91,73,42,30.53,30.11,4,0,7,0.00
2013-1-29,33.4,26.0,14.8,29.0,22.6,13.0,95,87,73,30.26,30.12,4,0,5,0.02
2013-1-30,54.3,40.2,30.4,53.0,39.3,29.0,98,96,95,30.20,29.45,11,2,27,0.31
2013-1-31,58.6,41.6,25.7,56.0,31.9,9.0,98,70,47,29.56,28.95,17,5,35,0.97
2013-2-1,27.4,22.5,15.3,12.0,7.8,4.0,66,54,42,30.12,29.57,9,2,20,0.00
2013-2-2,23.4,18.4,10.3,13.0,5.9,1.0,74,58,47,30.27,30.10,9,2,16,0.00
2013-2-3,25.9,20.8,12.9,16.0,13.9,10.0,89,75,62,30.11,29.79,5,0,6,0.00
2013-2-4,24.8,19.8,14.8,14.0,6.9,1.0,80,59,36,29.96,29.77,11,2,15,0.00
2013-2-5,26.6,18.1,7.8,15.0,7.4,2.0,83,64,46,30.08,29.96,5,0,8,0.00
2013-2-6,32.7,24.8,17.1,23.0,15.4,2.0,92,69,45,30.36,29.98,6,1,12,0.00
2013-2-7,25.1,17.2,8.1,3.0,0.1,-2.0,69,48,34,30.59,30.36,3,0,9,0.00
2013-2-8,19.3,15.9,12.8,13.0,9.7,-1.0,90,78,41,30.55,29.87,9,1,12,0.00
2013-2-9,17.4,13.3,9.1,15.0,10.6,4.0,92,89,77,30.30,29.81,5,0,14,0.00
2013-2-10,35.0,16.3,-4.0,15.0,3.5,-8.0,89,62,23,30.50,30.31,5,1,9,0.09
2013-2-11,34.5,22.7,0.4,34.0,20.0,-3.0,97,89,68,30.42,29.71,3,0,8,0.00
2013-2-12,39.4,35.2,32.1,34.0,28.2,26.0,97,76,62,29.90,29.68,6,2,17,0.19
2013-2-13,38.7,30.2,20.6,26.0,21.9,18.0,92,72,52,29.91,29.79,3,0,8,0.07
2013-2-14,40.3,27.1,17.8,25.0,20.4,16.0,94,78,46,30.04,29.77,6,0,8,0.03
2013-2-15,48.7,32.7,15.3,30.0,24.7,13.0,95,75,44,30.04,29.95,10,1,16,0.00
2013-2-16,37.9,30.2,22.1,28.0,21.4,6.0,95,71,51,30.02,29.81,4,1,11,0.01
2013-2-17,22.0,16.5,10.2,7.0,3.5,-1.0,71,57,49,29.82,29.50,12,3,19,0.00
2013-2-18,25.4,16.8,7.2,5.0,-1.0,-3.0,65,48,31,30.20,29.76,12,3,14,0.00
2013-2-19,41.4,28.9,13.8,34.0,18.4,2.0,97,67,40,30.24,29.63,7,1,12,0.12
2013-2-20,34.7,27.6,21.4,34.0,19.5,13.0,97,72,54,29.80,29.59,10,2,17,0.00
2013-2-21,27.7,21.7,17.1,16.0,11.8,8.0,80,66,51,30.30,29.80,7,2,11,0.00
2013-2-22,36.9,27.6,14.8,23.0,18.7,12.0,90,71,47,30.47,30.32,4,1,10,0.00
2013-2-23,31.8,29.6,25.8,30.0,26.4,22.0,95,88,81,30.39,30.01,7,1,8,0.00
2013-2-24,33.5,30.8,28.7,31.0,29.5,28.0,96,94,90,30.01,29.81,1,0,3,0.00
2013-2-25,37.2,30.7,22.6,33.0,28.6,21.0,97,92,82,30.29,29.96,1,0,5,0.37
2013-2-26,42.7,32.4,26.8,34.0,29.0,26.0,97,88,69,30.39,30.24,7,1,8,0.09
2013-2-27,35.0,31.8,30.1,34.0,30.4,27.0,96,94,86,30.25,29.69,10,1,14,0.06
2013-2-28,39.7,32.8,29.6,37.0,31.3,28.0,97,94,84,29.69,29.60,2,0,4,0.47
2013-3-1,37.0,33.5,30.8,32.0,28.5,26.0,97,82,70,29.75,29.60,4,1,9,0.16
2013-3-2,37.4,32.3,28.4,28.0,25.7,23.0,83,77,65,29.74,29.70,4,1,8,0.13
2013-3-3,36.7,30.1,24.9,29.0,24.8,22.0,89,81,67,29.71,29.64,4,1,6,0.11
2013-3-4,32.6,28.5,24.4,26.0,22.5,19.0,91,78,66,29.84,29.66,8,2,11,0.00
2013-3-5,42.9,32.7,26.1,31.0,26.1,21.0,94,77,55,30.14,29.85,5,1,10,0.09
2013-3-6,34.9,32.3,29.5,31.0,29.1,26.0,95,87,76,30.23,30.13,7,1,15,0.05
2013-3-7,32.1,29.2,27.4,29.0,26.5,24.0,95,89,78,30.21,30.12,6,1,11,0.02
2013-3-8,38.2,31.5,26.1,31.0,27.6,23.0,96,86,70,30.27,30.07,2,0,3,0.02
2013-3-9,53.7,34.7,19.2,29.0,22.7,16.0,95,67,25,30.43,30.25,3,1,6,0.28
2013-3-10,47.5,32.1,13.8,30.0,24.0,12.0,95,74,46,30.47,30.35,5,1,9,0.00
2013-3-11,46.6,38.3,31.4,38.0,31.3,29.0,91,77,54,30.36,30.18,8,1,13,0.00
2013-3-12,47.2,41.3,34.6,47.0,40.0,33.0,98,95,84,30.18,29.76,9,2,15,0.52
2013-3-13,45.4,38.1,29.4,40.0,28.5,21.0,95,70,46,29.83,29.76,5,1,10,0.01
2013-3-14,32.6,26.4,16.9,24.0,15.9,7.0,85,65,51,29.89,29.76,5,1,13,0.00
2013-3-15,36.0,25.1,13.8,28.0,13.7,3.0,92,64,32,29.91,29.70,5,1,18,0.00
2013-3-16,32.6,27.3,19.2,24.0,14.1,9.0,81,59,40,29.95,29.76,2,0,13,0.00
2013-3-17,31.7,23.2,13.4,14.0,8.6,3.0,88,56,32,30.39,29.95,8,1,16,0.00
2013-3-18,35.0,23.0,5.4,23.0,4.9,0.0,88,50,25,30.52,30.31,7,1,10,0.00
2013-3-19,30.9,27.2,22.3,29.0,25.5,21.0,94,93,89,30.29,29.76,7,1,16,0.00
2013-3-20,33.4,27.0,18.5,22.0,19.4,16.0,94,74,56,29.84,29.75,11,1,19,0.07
2013-3-21,38.3,24.4,4.5,23.0,13.4,1.0,93,67,32,29.85,29.66,3,0,10,0.16
2013-3-22,37.1,28.9,17.1,25.0,18.2,13.0,86,66,41,29.79,29.69,6,1,13,0.02
2013-3-23,38.6,30.7,22.7,22.0,19.3,17.0,82,64,44,29.84,29.71,7,2,16,0.00
2013-3-24,41.9,33.8,24.2,25.0,23.0,20.0,88,66,49,29.90,29.81,7,1,14,0.00
2013-3-25,40.0,30.4,18.4,29.0,23.9,17.0,94,78,58,29.85,29.61,4,0,10,0.00
2013-3-26,45.4,36.3,28.2,30.0,24.8,19.0,89,66,37,29.85,29.65,3,1,11,0.00
2013-3-27,48.3,36.4,25.4,31.0,25.3,22.0,87,66,41,29.95,29.83,6,1,10,0.00
2013-3-28,46.5,37.6,32.3,33.0,31.0,26.0,95,79,48,30.09,29.95,4,0,7,0.00
2013-3-29,51.9,40.8,32.4,35.0,32.0,30.0,91,73,47,30.11,30.04,5,1,10,0.00
2013-3-30,51.4,38.9,27.0,31.0,25.2,17.0,94,64,27,30.17,30.07,6,1,10,0.00
2013-3-31,53.4,37.7,22.3,36.0,24.8,20.0,96,66,28,30.18,29.83,8,2,17,0.11
2013-4-1,54.2,39.4,29.3,42.0,32.1,12.0,97,77,42,29.82,29.56,10,2,20,0.36
2013-4-2,33.1,28.8,24.0,18.0,12.7,8.0,63,51,39,29.96,29.82,13,2,21,0.00
2013-4-3,39.8,31.5,23.7,17.0,11.3,6.0,68,45,25,30.20,29.95,8,2,17,0.00
2013-4-4,50.4,37.4,26.5,25.0,16.5,11.0,65,45,23,30.35,30.06,13,2,14,0.00
2013-4-5,54.5,41.2,32.7,28.0,24.9,20.0,79,55,27,30.03,29.74,4,1,12,0.00
2013-4-6,40.2,31.0,24.1,21.0,11.4,4.0,70,47,23,30.39,29.95,6,1,13,0.00
2013-4-7,52.5,40.0,22.8,38.0,24.3,15.0,84,56,32,30.39,30.02,15,4,22,0.00
2013-4-8,57.9,46.6,37.4,39.0,35.2,29.0,91,68,33,30.14,30.01,5,1,9,0.00
2013-4-9,60.2,46.8,36.4,49.0,40.3,35.0,97,80,51,30.12,29.94,6,1,9,0.04
2013-4-10,53.2,44.8,38.5,48.0,42.7,36.0,98,92,78,30.05,29.93,2,0,5,0.81
2013-4-11,43.7,39.2,34.0,43.0,34.7,28.0,97,85,58,30.21,29.92,3,0,7,0.07
2013-4-12,34.2,31.6,30.1,32.0,29.4,27.0,96,91,82,30.25,29.92,9,1,16,0.10
2013-4-13,48.1,37.5,31.1,38.0,33.4,30.0,96,86,60,30.01,29.87,2,0,12,0.41
2013-4-14,47.9,39.5,30.7,36.0,31.2,27.0,96,75,49,30.28,29.98,7,1,15,0.00
2013-4-15,54.4,41.0,27.0,36.0,31.1,26.0,95,71,43,30.43,30.29,8,1,12,0.00
2013-4-16,61.8,49.5,34.0,52.0,40.6,30.0,93,73,52,30.44,30.09,16,4,25,0.00
2013-4-17,59.0,51.0,35.8,52.0,35.4,27.0,93,59,30,30.39,30.09,5,1,14,0.01
2013-4-18,58.4,46.2,30.0,42.0,31.6,27.0,91,60,39,30.49,30.19,12,4,17,0.00
2013-4-19,70.3,60.4,50.3,61.0,55.2,43.0,96,83,68,30.18,29.64,14,5,27,0.12
2013-4-20,63.2,46.3,35.5,61.0,35.1,20.0,94,68,41,30.27,29.65,7,2,17,0.27
2013-4-21,47.9,37.8,29.0,25.0,19.7,14.0,78,50,26,30.75,30.28,5,1,10,0.00
2013-4-22,47.7,37.7,27.0,31.0,25.1,20.0,86,63,36,30.83,30.67,13,2,19,0.00
2013-4-23,37.8,35.0,30.4,37.0,32.9,28.0,96,92,85,30.68,30.24,4,0,11,0.01
2013-4-24,70.7,54.8,37.8,49.0,42.4,34.0,97,69,26,30.23,29.82,13,2,22,0.00
2013-4-25,56.5,49.4,35.0,49.0,33.5,22.0,90,57,27,30.34,29.82,8,2,16,0.00
2013-4-26,55.9,43.8,29.5,41.0,31.7,26.0,88,65,38,30.49,30.34,9,1,16,0.00
2013-4-27,62.5,48.5,31.0,42.0,34.7,27.0,95,63,27,30.49,30.33,7,1,9,0.00
2013-4-28,65.6,51.6,33.7,41.0,37.5,32.0,93,62,37,30.38,30.24,9,2,15,0.00
2013-4-29,64.7,55.1,42.6,45.0,38.1,28.0,80,54,35,30.30,30.20,10,2,17,0.00
2013-4-30,66.7,57.1,44.6,38.0,32.7,26.0,61,41,28,30.40,30.29,8,2,13,0.00
2013-5-1,68.5,54.2,34.6,42.0,33.3,28.0,82,50,23,30.51,30.40,7,2,13,0.00
2013-5-2,77.0,56.8,42.0,48.0,38.9,29.0,89,56,25,30.55,30.37,11,2,17,0.00
2013-5-3,61.7,49.8,36.4,47.0,39.9,34.0,91,71,47,30.58,30.43,8,2,13,0.00
2013-5-4,66.1,51.6,38.7,47.0,39.5,33.0,96,67,33,30.43,30.31,7,2,13,0.00
2013-5-5,64.1,49.2,31.4,43.0,35.7,30.0,94,64,32,30.39,30.27,9,2,13,0.00
2013-5-6,70.6,53.4,33.6,47.0,38.3,32.0,95,63,26,30.32,30.17,8,1,10,0.00
2013-5-7,75.7,62.2,44.7,56.0,47.1,37.0,97,64,25,30.21,30.11,8,2,12,0.00
2013-5-8,68.7,60.8,49.9,61.0,56.6,49.0,95,86,72,30.24,30.09,8,2,16,0.13
2013-5-9,64.6,59.3,55.9,58.0,56.9,55.0,97,92,76,30.08,29.92,6,1,9,0.07
2013-5-10,74.3,63.4,48.7,59.0,54.6,48.0,98,76,48,30.00,29.93,7,1,10,0.01
2013-5-11,65.5,61.9,57.9,62.0,57.9,54.0,97,87,68,29.93,29.72,10,2,15,0.70
2013-5-12,64.4,55.5,46.2,57.0,45.9,26.0,97,73,38,29.83,29.62,4,1,11,0.11
2013-5-13,49.3,43.9,39.5,34.0,29.5,26.0,78,58,44,30.10,29.83,9,1,19,0.00
2013-5-14,53.4,45.2,34.1,35.0,31.6,26.0,88,62,37,30.12,30.05,6,1,8,0.00
2013-5-15,60.8,47.0,31.6,51.0,38.1,30.0,93,75,34,30.11,29.72,15,2,19,0.14
2013-5-16,74.1,61.9,45.2,50.0,42.5,32.0,97,56,26,29.87,29.68,10,1,20,0.01
2013-5-17,64.1,53.5,42.5,43.0,40.0,35.0,87,63,34,30.28,29.87,10,1,13,0.00
2013-5-18,67.9,54.5,37.6,48.0,40.1,33.0,95,64,29,30.36,30.27,5,1,10,0.00
2013-5-19,65.3,55.0,45.6,54.0,50.0,43.0,95,84,61,30.38,30.24,5,1,11,0.08
2013-5-20,74.1,63.7,54.1,64.0,58.6,53.0,96,84,66,30.24,29.98,4,1,9,0.02
2013-5-21,70.7,59.1,49.0,65.0,57.0,48.0,97,93,81,30.09,29.93,6,1,13,0.35
2013-5-22,61.8,54.9,50.1,60.0,53.7,49.0,98,95,90,30.04,29.92,6,1,9,0.66
2013-5-23,72.0,61.1,50.9,68.0,59.6,50.0,98,94,82,29.96,29.81,13,2,16,0.37
2013-5-24,66.1,58.0,44.5,64.0,55.9,43.0,97,92,82,29.90,29.67,5,1,15,0.35
2013-5-25,45.7,42.3,36.3,44.0,41.2,35.0,97,95,92,29.89,29.81,4,1,10,0.54
2013-5-26,52.2,43.9,36.2,42.0,37.9,35.0,95,80,62,30.15,29.79,5,1,9,0.06
2013-5-27,64.9,51.5,36.9,47.0,39.0,34.0,97,68,33,30.25,30.14,4,0,10,0.00
2013-5-28,68.3,54.8,37.2,49.0,42.3,36.0,96,67,37,30.30,30.20,6,1,10,0.00
2013-5-29,62.6,56.7,50.9,61.0,55.2,47.0,98,95,86,30.22,30.04,1,0,5,0.40
2013-5-30,81.9,69.9,57.9,69.0,63.5,57.0,99,82,51,30.13,30.05,6,1,12,0.01
2013-5-31,87.8,74.1,60.0,70.0,64.4,59.0,98,75,45,30.13,29.97,6,0,16,0.00
2013-6-1,88.3,76.9,65.9,70.0,65.8,61.0,94,71,40,30.00,29.88,10,1,11,0.00
2013-6-2,85.4,74.6,66.3,70.0,67.3,65.0,97,80,55,29.89,29.70,14,2,20,1.19
2013-6-3,74.2,65.8,54.3,66.0,58.4,46.0,98,79,49,29.88,29.80,8,1,15,0.10
2013-6-4,65.2,56.2,46.8,49.0,44.8,40.0,91,67,48,30.16,29.88,10,1,14,0.00
2013-6-5,69.7,58.2,44.4,55.0,46.3,40.0,95,69,36,30.25,30.13,3,0,8,0.00
2013-6-6,68.4,59.4,47.8,56.0,49.7,44.0,92,72,52,30.24,30.14,7,2,13,0.02
2013-6-7,54.5,51.6,48.2,53.0,50.1,46.0,96,94,88,30.16,29.94,6,1,9,1.70
2013-6-8,70.2,61.3,49.7,62.0,57.3,49.0,97,87,72,30.05,29.78,6,0,10,0.90
2013-6-9,72.5,62.5,52.5,59.0,55.1,52.0,98,79,54,30.22,30.06,3,0,11,0.00
2013-6-10,66.4,59.4,51.0,60.0,55.7,50.0,96,88,71,30.25,30.07,5,1,9,0.35
2013-6-11,56.8,55.2,53.2,55.0,53.9,52.0,97,95,92,30.06,29.64,5,1,10,1.28
2013-6-12,62.6,57.1,51.8,56.0,53.8,51.0,98,89,74,29.88,29.62,3,0,11,0.06
2013-6-13,63.1,54.7,47.2,58.0,52.0,46.0,98,91,74,29.87,29.76,5,0,9,0.36
2013-6-14,69.3,58.1,49.7,60.0,53.4,49.0,97,86,51,29.86,29.73,7,0,8,0.31
2013-6-15,71.4,61.2,49.0,55.0,49.6,44.0,96,69,38,29.99,29.86,5,0,10,0.00
2013-6-16,71.5,61.9,50.4,61.0,53.9,48.0,92,76,55,29.99,29.75,6,1,15,0.00
2013-6-17,78.4,64.7,55.0,63.0,58.7,54.0,97,83,50,29.94,29.82,7,1,14,0.35
2013-6-18,62.4,57.6,52.9,60.0,56.0,52.0,98,94,85,30.01,29.93,2,0,4,0.02
2013-6-19,68.7,58.9,48.3,54.0,48.9,42.0,97,73,38,30.21,29.98,4,0,7,0.00
2013-6-20,73.6,59.9,44.1,58.0,48.2,43.0,96,69,39,30.32,30.22,7,1,14,0.00
2013-6-21,77.7,65.9,52.5,62.0,55.6,48.0,92,72,40,30.29,30.24,4,0,8,0.00
2013-6-22,79.2,68.2,55.2,68.0,61.1,52.0,96,79,57,30.27,30.14,7,1,15,0.00
2013-6-23,85.9,74.6,64.7,72.0,66.6,61.0,94,77,58,30.18,29.99,7,1,16,0.01
2013-6-24,87.1,77.1,68.3,74.0,69.1,66.0,94,78,52,30.03,29.92,6,1,10,0.03
2013-6-25,85.1,74.2,66.3,73.0,67.9,64.0,97,82,57,29.97,29.77,10,1,15,0.23
2013-6-26,75.5,69.0,64.2,72.0,67.4,63.0,98,95,84,29.89,29.76,2,0,3,0.06
2013-6-27,70.1,65.7,62.2,67.0,64.5,61.0,98,96,90,29.89,29.80,4,1,9,0.01
2013-6-28,70.8,62.6,55.6,68.0,61.9,55.0,98,97,91,29.80,29.53,6,1,12,1.19
2013-6-29,79.4,72.0,65.5,69.0,67.0,65.0,99,85,64,29.73,29.55,11,2,17,0.06
2013-6-30,81.5,72.6,66.3,72.0,67.9,65.0,97,86,64,29.96,29.73,11,1,17,0.20
2013-7-1,74.6,70.4,66.7,72.0,69.3,66.0,98,96,87,30.10,29.96,2,0,4,0.61
2013-7-2,79.2,69.7,61.8,73.0,67.9,61.0,98,94,79,30.25,30.09,6,1,12,0.40
2013-7-3,82.0,72.0,62.2,74.0,68.6,61.0,99,90,72,30.23,30.16,7,1,12,0.40
2013-7-4,87.2,79.0,69.3,75.0,72.2,69.0,98,81,61,30.23,30.10,7,1,12,0.00
2013-7-5,87.9,79.7,72.2,76.0,73.1,71.0,95,81,59,30.18,30.05,6,1,11,0.00
2013-7-6,82.5,76.4,68.1,73.0,70.4,66.0,94,82,62,30.11,30.02,4,0,8,0.00
2013-7-7,85.4,75.2,65.0,77.0,69.1,63.0,94,82,61,30.07,29.94,3,0,9,0.00
2013-7-8,81.6,73.1,64.3,75.0,70.1,63.0,96,90,75,30.11,29.95,3,0,6,1.18
2013-7-9,72.4,67.3,63.8,69.0,65.5,62.0,97,94,86,30.15,30.09,5,1,9,0.00
2013-7-10,74.3,68.2,65.0,73.0,67.5,65.0,98,97,95,30.11,29.83,6,1,9,0.71
2013-7-11,79.7,71.7,64.8,74.0,69.5,62.0,99,93,75,30.00,29.79,2,0,6,0.01
2013-7-12,75.4,67.6,60.9,64.0,61.2,59.0,93,81,63,30.26,30.00,4,0,10,0.00
2013-7-13,74.9,67.5,58.2,70.0,63.3,56.0,96,86,69,30.36,30.25,4,0,7,0.00
2013-7-14,83.6,74.3,66.2,76.0,70.3,65.0,98,88,69,30.35,30.25,1,0,6,0.00
2013-7-15,86.5,75.0,65.6,75.0,69.1,65.0,97,83,57,30.25,30.15,0,0,4,0.00
2013-7-16,87.2,75.5,65.1,73.0,68.8,64.0,97,81,56,30.22,30.17,0,0,3,0.00
2013-7-17,88.5,77.2,64.6,76.0,70.1,64.0,97,80,56,30.22,30.01,4,0,8,0.00
2013-7-18,89.1,78.1,70.3,77.0,71.7,69.0,97,82,56,30.05,29.95,3,0,10,0.19
2013-7-19,89.6,79.8,69.6,77.0,72.9,69.0,98,81,59,29.97,29.73,12,0,17,0.01
2013-7-20,84.7,76.4,67.0,72.0,68.1,63.0,88,76,63,29.84,29.68,5,0,17,0.00
2013-7-21,78.0,70.6,62.8,69.0,64.8,61.0,94,82,61,30.03,29.85,5,0,6,0.00
2013-7-22,75.9,67.7,61.4,71.0,65.2,60.0,97,92,80,30.07,29.94,5,1,9,0.00
2013-7-23,73.1,66.6,63.9,70.0,65.2,63.0,97,95,89,29.93,29.59,2,0,4,2.27
2013-7-24,78.3,68.6,55.7,70.0,63.1,50.0,98,83,64,30.03,29.63,4,0,7,0.00
2013-7-25,68.5,60.5,52.3,59.0,53.8,47.0,92,79,68,30.16,30.03,3,0,8,0.00
2013-7-26,71.7,63.7,59.3,66.0,61.0,58.0,97,91,77,30.14,30.01,1,0,3,0.28
2013-7-27,78.2,67.8,56.1,67.0,60.8,55.0,97,80,48,30.10,30.02,6,0,10,0.00
2013-7-28,77.4,69.0,59.0,71.0,64.8,58.0,97,87,68,30.05,30.00,4,1,9,0.15
2013-7-29,80.6,70.1,62.9,70.0,65.9,61.0,98,87,57,30.09,29.99,7,1,9,0.03
2013-7-30,75.6,66.5,57.7,62.0,58.3,55.0,91,76,53,30.14,30.08,2,0,6,0.00
2013-7-31,76.5,66.9,55.7,65.0,59.4,54.0,96,78,50,30.19,30.08,4,0,7,0.00
2013-8-1,75.0,64.6,56.9,66.0,61.0,56.0,97,88,66,30.09,29.91,7,1,11,0.25
2013-8-2,76.7,68.2,61.7,66.0,61.7,57.0,97,81,53,29.91,29.83,5,0,9,0.13
2013-8-3,75.1,65.9,57.9,62.0,58.2,55.0,96,78,53,29.90,29.82,5,0,11,0.00
2013-8-4,72.8,62.8,53.7,63.0,56.0,52.0,96,80,57,29.96,29.84,2,0,7,0.00
2013-8-5,69.5,59.5,49.9,53.0,48.4,41.0,91,70,36,30.11,29.94,6,1,12,0.00
2013-8-6,72.3,60.2,46.9,61.0,52.1,45.0,95,77,49,30.20,30.11,5,1,7,0.00
2013-8-7,74.2,64.1,53.0,61.0,56.6,52.0,96,78,52,30.23,30.14,7,2,13,0.00
2013-8-8,78.0,70.9,63.3,70.0,66.1,60.0,94,85,73,30.14,30.03,7,2,12,0.00
2013-8-9,73.0,71.2,68.4,72.0,69.5,68.0,98,94,89,30.04,29.76,7,2,12,1.54
2013-8-10,75.9,67.3,54.3,68.0,59.1,51.0,98,78,44,30.07,29.83,5,0,8,0.00
2013-8-11,73.5,62.3,50.5,61.0,54.1,49.0,96,77,47,30.13,30.05,5,0,7,0.00
2013-8-12,75.3,64.8,54.5,65.0,57.6,53.0,95,79,52,30.08,29.97,5,0,10,0.00
2013-8-13,69.2,64.7,60.1,67.0,63.0,58.0,97,94,89,29.97,29.73,4,1,11,0.09
2013-8-14,67.8,62.1,54.2,64.0,54.4,50.0,97,77,60,30.00,29.71,9,1,10,0.00
2013-8-15,70.0,59.8,48.5,57.0,52.1,47.0,95,77,53,30.16,30.00,4,0,9,0.00
2013-8-16,72.6,60.7,49.8,63.0,54.3,49.0,96,81,54,30.25,30.15,5,0,7,0.00
2013-8-17,75.7,63.3,50.9,64.0,56.2,50.0,96,80,50,30.33,30.26,3,0,7,0.00
2013-8-18,76.4,64.4,55.5,66.0,59.5,54.0,96,85,55,30.32,30.13,8,0,8,0.00
2013-8-19,76.1,66.1,55.6,66.0,60.5,54.0,97,83,58,30.13,30.00,4,0,7,0.00
2013-8-20,80.2,68.0,57.9,68.0,61.5,57.0,96,81,52,30.15,30.04,2,0,8,0.00
2013-8-21,82.3,69.8,59.1,71.0,63.0,58.0,96,81,54,30.19,30.07,3,0,10,0.00
2013-8-22,83.2,72.2,61.2,72.0,65.5,60.0,96,81,52,30.07,29.86,5,1,11,0.09
2013-8-23,73.6,66.3,57.8,66.0,58.8,51.0,97,78,52,30.18,29.87,2,0,5,0.00
2013-8-24,72.4,59.8,47.3,59.0,51.0,46.0,95,75,46,30.39,30.19,5,0,9,0.00
2013-8-25,76.2,62.6,48.7,63.0,53.8,47.0,96,76,41,30.42,30.22,5,1,14,0.00
2013-8-26,76.6,68.4,60.5,69.0,63.7,57.0,95,85,72,30.22,29.91,5,0,11,0.15
2013-8-27,79.8,71.5,65.5,71.0,66.9,64.0,97,86,65,29.94,29.88,3,0,9,0.00
2013-8-28,79.7,71.1,62.7,71.0,66.6,62.0,98,86,66,30.04,29.90,6,0,8,0.06
2013-8-29,65.4,62.9,60.1,64.0,61.5,58.0,97,95,92,30.12,29.99,5,1,7,0.00
2013-8-30,79.6,68.6,59.5,71.0,64.6,58.0,97,88,62,30.07,29.86,5,0,9,0.00
2013-8-31,77.4,71.5,66.6,73.0,69.1,66.0,97,92,84,29.87,29.80,7,1,11,0.02
2013-9-1,79.0,72.5,67.9,73.0,69.4,66.0,97,90,76,29.91,29.82,6,1,8,0.21
2013-9-2,74.6,70.4,66.8,72.0,69.3,66.0,98,96,91,29.90,29.75,3,0,6,1.05
2013-9-3,72.7,66.0,57.8,68.0,63.2,56.0,98,91,80,29.86,29.74,1,0,5,0.01
2013-9-4,75.1,64.7,56.0,62.0,57.4,54.0,97,79,49,29.96,29.85,2,0,10,0.00
2013-9-5,65.2,57.5,44.5,57.0,50.2,41.0,94,78,43,30.21,29.89,4,0,7,0.00
2013-9-6,64.0,52.3,40.0,51.0,43.9,39.0,96,76,43,30.30,30.14,8,0,10,0.00
2013-9-7,74.7,62.3,50.0,61.0,50.8,45.0,87,68,40,30.14,29.89,7,1,13,0.00
2013-9-8,66.5,58.6,42.9,59.0,49.2,41.0,92,72,51,30.15,29.80,3,0,8,0.00
2013-9-9,65.2,53.3,39.0,53.0,44.9,37.0,95,76,45,30.29,30.14,7,1,14,0.00
2013-9-10,71.5,63.3,52.7,69.0,61.2,50.0,98,92,81,30.18,30.06,7,1,12,0.00
2013-9-11,88.7,76.9,66.7,77.0,72.0,66.0,98,86,62,30.11,29.94,5,1,11,0.46
2013-9-12,77.1,68.8,65.1,73.0,67.2,65.0,98,94,85,29.95,29.69,7,1,13,0.20
2013-9-13,69.5,63.4,56.0,67.0,61.3,53.0,98,92,84,29.82,29.64,2,0,4,0.00
2013-9-14,61.5,55.7,49.9,54.0,51.6,49.0,96,86,73,30.10,29.82,0,0,9,0.00
2013-9-15,65.1,55.0,44.0,56.0,49.8,43.0,98,84,55,30.21,30.08,4,0,12,0.00
2013-9-16,63.4,54.2,41.6,55.0,48.7,36.0,93,82,70,30.32,30.05,3,0,8,0.00
2013-9-17,58.9,47.1,36.5,49.0,40.1,34.0,95,78,50,30.50,30.33,3,0,8,0.00
2013-9-18,68.9,52.6,40.1,54.0,45.5,39.0,97,80,37,30.40,30.20,2,0,7,0.00
2013-9-19,73.1,58.0,46.1,60.0,51.6,45.0,96,81,43,30.20,30.09,2,0,7,0.00
2013-9-20,73.7,59.4,47.4,60.0,53.5,46.0,96,83,52,30.15,30.05,4,1,8,0.00
2013-9-21,70.9,62.2,51.5,63.0,57.4,50.0,98,85,64,30.06,29.74,11,3,21,0.00
2013-9-22,65.6,59.7,48.1,64.0,54.5,43.0,97,83,63,29.89,29.62,13,1,15,0.00
2013-9-23,55.3,48.2,41.8,44.0,41.5,39.0,91,78,62,30.07,29.89,4,0,8,0.00
2013-9-24,62.1,51.2,41.6,47.0,42.2,38.0,92,73,47,30.05,29.89,4,1,10,0.00
2013-9-25,63.3,53.4,42.2,54.0,48.0,41.0,95,83,64,30.05,29.95,6,0,7,0.00
2013-9-26,63.8,54.0,45.2,53.0,48.5,44.0,95,82,59,30.20,30.05,3,0,7,0.00
2013-9-27,62.3,54.6,47.0,54.0,50.6,46.0,95,86,66,30.33,30.20,2,0,6,0.00
2013-9-28,69.3,54.8,43.3,57.0,49.9,42.0,97,85,56,30.40,30.33,4,0,8,0.00
2013-9-29,66.5,53.0,43.0,55.0,47.9,42.0,96,84,58,30.33,30.17,4,1,8,0.00
2013-9-30,67.7,52.1,39.4,55.0,47.1,38.0,96,84,56,30.18,30.04,3,0,5,0.00
2013-10-1,72.5,56.9,43.4,60.0,51.7,42.0,97,84,55,30.04,29.92,3,0,7,0.00
2013-10-2,73.7,62.7,50.7,61.0,56.9,50.0,97,82,60,30.00,29.89,6,0,8,0.00
2013-10-3,72.4,59.9,47.8,57.0,51.6,46.0,95,76,44,30.14,30.00,3,0,5,0.00
2013-10-4,62.0,57.7,52.8,57.0,54.2,51.0,95,88,77,30.15,30.10,1,0,4,0.01
2013-10-5,62.2,58.2,55.5,56.0,54.4,50.0,96,87,75,30.18,30.11,3,0,5,0.00
2013-10-6,57.3,51.4,47.9,55.0,50.1,47.0,97,95,90,30.30,30.17,4,0,10,0.00
2013-10-7,70.7,57.6,51.7,66.0,56.3,51.0,99,95,84,30.20,29.80,13,2,24,1.08
2013-10-8,61.6,51.7,38.3,50.0,43.6,37.0,95,76,47,30.45,29.95,5,0,6,0.00
2013-10-9,58.7,44.4,33.5,46.0,39.1,32.0,96,84,53,30.56,30.45,5,0,9,0.00
2013-10-10,58.6,47.3,36.4,49.0,42.8,35.0,96,85,50,30.45,30.26,2,0,4,0.00
2013-10-11,65.9,52.4,41.3,55.0,46.6,40.0,97,82,44,30.26,30.18,4,0,8,0.03
2013-10-12,52.8,48.7,42.8,52.0,47.7,42.0,98,96,94,30.47,30.24,4,0,8,0.02
2013-10-13,55.2,48.0,38.7,49.0,44.8,38.0,97,89,70,30.52,30.45,6,0,7,0.00
2013-10-14,65.9,50.7,38.6,54.0,46.0,38.0,97,85,57,30.46,30.28,4,0,8,0.00
2013-10-15,60.8,55.3,49.7,55.0,52.2,48.0,95,89,80,30.33,30.23,4,1,7,0.00
2013-10-16,58.0,52.1,45.4,51.0,48.9,44.0,96,89,70,30.23,29.96,3,0,7,0.00
2013-10-17,69.7,57.3,47.6,57.0,50.6,47.0,97,81,47,29.95,29.76,4,0,12,0.01
2013-10-18,61.7,55.1,46.9,56.0,48.1,37.0,98,78,58,29.94,29.63,5,0,10,0.24
2013-10-19,62.5,51.7,38.0,46.0,41.9,37.0,95,71,49,30.01,29.78,8,1,13,0.00
2013-10-20,56.5,49.1,38.5,47.0,39.7,35.0,96,72,50,30.06,29.72,5,1,16,0.01
2013-10-21,62.4,48.1,33.1,45.0,39.0,32.0,96,74,48,30.16,30.03,8,1,13,0.00
2013-10-22,58.8,50.9,41.8,49.0,44.3,34.0,89,78,66,30.02,29.76,6,1,14,0.00
2013-10-23,51.4,42.3,30.8,36.0,32.9,29.0,94,71,44,29.83,29.65,4,0,8,0.00
2013-10-24,46.6,41.1,32.6,36.0,31.2,28.0,87,69,51,29.93,29.71,7,1,13,0.00
2013-10-25,46.0,36.8,28.6,33.0,28.7,25.0,95,74,49,30.20,29.93,4,0,10,0.00
2013-10-26,48.7,39.4,27.5,34.0,29.5,26.0,96,70,45,30.20,29.91,10,2,19,0.00
2013-10-27,50.1,43.9,33.2,37.0,32.6,28.0,86,65,49,30.10,29.84,7,1,10,0.00
2013-10-28,52.6,38.8,27.7,37.0,30.7,23.0,91,74,50,30.42,30.10,9,1,20,0.00
2013-10-29,44.7,31.0,21.0,27.0,20.9,16.0,93,70,31,30.52,30.42,6,0,10,0.00
2013-10-30,46.9,35.0,26.3,37.0,28.8,20.0,95,78,58,30.43,30.27,3,0,7,0.00
2013-10-31,58.7,45.4,31.4,57.0,44.1,30.0,98,95,90,30.31,29.82,9,2,20,0.14
2013-11-1,64.8,59.6,51.2,61.0,55.4,45.0,93,86,71,29.80,29.44,17,4,29,0.38
2013-11-2,62.0,49.5,38.2,48.0,43.1,37.0,97,81,49,29.81,29.64,6,0,9,0.06
2013-11-3,42.8,35.4,27.5,41.0,23.9,16.0,93,65,40,30.49,29.82,4,1,10,0.00
2013-11-4,39.6,28.9,22.0,21.0,18.0,16.0,84,65,39,30.78,30.49,5,0,8,0.00
2013-11-5,46.5,33.0,21.4,34.0,26.7,18.0,91,79,58,30.79,30.56,5,1,13,0.00
2013-11-6,55.3,46.9,35.9,47.0,41.0,34.0,94,80,66,30.56,30.05,10,3,18,0.00
2013-11-7,57.6,49.6,37.5,55.0,45.7,30.0,93,86,70,30.05,29.73,10,2,17,0.06
2013-11-8,42.3,35.1,27.2,32.0,25.9,22.0,88,70,54,30.13,29.86,4,1,15,0.00
2013-11-9,40.7,35.0,29.0,30.0,24.3,21.0,80,66,48,30.26,30.07,4,1,9,0.00
2013-11-10,46.0,39.2,30.2,39.0,34.2,29.0,96,83,73,30.07,29.80,6,1,11,0.03
2013-11-11,48.1,39.9,34.0,31.0,28.1,24.0,78,64,40,30.13,29.91,9,1,12,0.00
2013-11-12,41.6,30.5,23.3,34.0,20.6,15.0,89,67,55,30.24,29.92,4,1,7,0.00
2013-11-13,31.0,25.3,19.3,18.0,13.7,11.0,76,62,45,30.36,30.19,5,1,8,0.00
2013-11-14,46.9,34.7,25.4,29.0,23.0,17.0,83,64,49,30.18,30.11,5,1,16,0.00
2013-11-15,53.8,40.3,30.4,28.0,22.1,16.0,77,51,26,30.24,30.16,7,1,12,0.00
2013-11-16,58.6,40.5,31.9,34.0,29.9,26.0,90,69,34,30.38,30.24,3,0,7,0.00
2013-11-17,45.2,37.4,29.7,45.0,36.1,28.0,98,94,82,30.37,29.92,2,0,4,0.11
2013-11-18,60.4,51.2,43.3,57.0,43.9,32.0,99,78,47,29.90,29.57,7,2,26,0.31
2013-11-19,43.4,34.0,27.2,31.0,21.4,15.0,76,60,48,30.36,29.69,6,1,15,0.00
2013-11-20,37.0,27.4,19.5,19.0,15.8,12.0,85,63,38,30.71,30.36,5,0,7,0.00
2013-11-21,42.8,30.2,16.1,29.0,18.8,11.0,89,66,28,30.72,30.43,5,0,9,0.00
2013-11-22,42.6,38.1,35.6,42.0,36.0,29.0,98,92,70,30.42,29.86,1,0,4,0.22
2013-11-23,42.8,34.2,23.8,42.0,24.9,11.0,97,70,45,29.98,29.82,7,1,13,0.01
2013-11-24,23.1,18.0,13.9,17.0,5.2,-1.0,90,59,41,30.25,29.84,8,2,18,0.00
2013-11-25,27.9,20.1,11.0,15.0,4.3,-3.0,73,51,33,30.45,30.26,6,1,10,0.00
2013-11-26,33.0,29.4,25.0,30.0,23.0,13.0,95,78,56,30.38,30.13,7,1,7,0.01
2013-11-27,44.6,36.1,31.4,44.0,35.0,29.0,98,96,87,30.12,29.33,5,0,10,0.84
2013-11-28,32.9,25.0,14.2,30.0,13.9,5.0,87,64,42,30.48,29.51,15,2,15,0.00
2013-11-29,27.2,18.5,10.4,12.0,9.0,5.0,86,68,41,30.83,30.48,4,0,7,0.00
2013-11-30,27.2,18.9,5.5,20.0,11.2,3.0,89,73,55,30.89,30.51,8,2,11,0.00
2013-12-1,33.8,30.8,27.3,31.0,27.7,20.0,96,88,75,30.50,30.10,5,0,10,0.00
2013-12-2,36.7,33.2,29.8,35.0,32.4,29.0,97,96,94,30.10,29.98,2,0,3,0.00
2013-12-3,46.4,33.8,25.0,36.0,30.5,24.0,98,88,60,30.02,29.93,5,0,5,0.00
2013-12-4,38.7,30.6,24.9,29.0,25.8,23.0,96,83,63,30.26,30.01,3,0,6,0.00
2013-12-5,47.9,32.5,25.9,47.0,30.7,24.0,98,93,81,30.27,29.96,3,0,6,0.01
2013-12-6,50.0,41.6,31.2,50.0,38.4,29.0,98,89,64,30.20,29.92,4,0,9,0.03
2013-12-7,34.0,29.1,21.4,30.0,23.4,16.0,95,80,59,30.50,30.12,5,1,14,0.04
2013-12-8,26.1,23.1,17.4,17.0,15.2,14.0,87,72,61,30.64,30.50,2,0,5,0.00
2013-12-9,30.0,25.8,20.8,29.0,23.2,15.0,96,90,69,30.56,29.94,3,0,7,0.00
2013-12-10,31.6,26.8,17.5,29.0,23.1,11.0,97,86,73,30.03,29.85,2,0,8,0.00
2013-12-11,29.8,21.7,14.2,17.0,14.2,11.0,91,74,53,30.23,30.04,7,1,13,0.00
2013-12-12,20.0,12.4,4.3,17.0,3.8,-1.0,92,71,39,30.33,30.10,4,0,11,0.00
2013-12-13,21.9,13.3,3.4,17.0,7.6,-3.0,89,78,66,30.48,30.03,6,1,11,0.00
2013-12-14,11.4,6.1,0.4,7.0,-1.8,-7.0,89,71,44,30.68,30.32,3,0,7,0.00
2013-12-15,25.8,18.0,9.8,23.0,15.4,7.0,92,89,81,30.30,29.56,0,0,0,0.00
2013-12-16,24.4,16.6,1.6,15.0,7.1,-3.0,93,68,44,30.26,29.78,4,0,14,0.00
2013-12-17,12.7,2.7,-11.5,10.0,-1.3,-15.0,89,83,67,30.34,30.11,2,0,6,0.00
2013-12-18,30.4,21.1,13.2,21.0,16.6,10.0,93,83,66,30.12,29.99,0,0,0,0.07
2013-12-19,38.9,28.1,23.1,26.0,22.1,19.0,91,79,55,30.16,30.01,7,0,14,0.04
2013-12-20,42.1,33.7,25.0,36.0,30.0,23.0,94,87,66,30.18,29.97,7,0,13,0.23
2013-12-21,54.1,39.3,33.7,45.0,36.6,32.0,97,90,69,29.99,29.91,2,0,6,0.07
2013-12-22,39.3,34.1,31.0,39.0,33.6,31.0,98,97,96,30.08,29.87,5,0,7,0.13
2013-12-23,36.6,32.1,30.2,36.0,31.6,30.0,98,98,91,30.17,30.04,3,0,6,0.04
2013-12-24,32.7,26.6,16.8,29.0,18.2,8.0,87,71,57,30.27,30.11,4,1,10,0.00
2013-12-25,20.3,13.5,6.3,8.0,3.2,-1.0,78,64,45,30.59,30.27,5,1,11,0.00
2013-12-26,26.2,20.7,12.4,24.0,16.6,7.0,92,84,71,30.56,30.17,4,0,7,0.00
2013-12-27,30.7,24.0,14.0,22.0,18.6,12.0,94,80,63,30.32,30.25,8,0,10,0.00
2013-12-28,40.8,31.1,19.3,31.0,25.4,17.0,91,80,63,30.26,30.04,5,1,12,0.09
2013-12-29,40.8,32.1,25.6,33.0,29.3,24.0,96,90,67,30.08,29.59,5,0,5,0.01
2013-12-30,35.4,26.4,7.4,33.0,21.3,3.0,97,81,66,30.23,29.64,6,1,13,0.14
2013-12-31,18.8,10.2,-0.4,12.0,4.2,-3.0,91,77,58,30.24,30.09,5,0,10,0.00
2014-1-1,20.0,12.4,4.8,10.0,6.9,2.0,90,79,61,30.45,30.24,8,0,11,0.00
2014-1-2,11.5,5.6,-2.2,8.0,2.2,-6.0,90,85,84,30.44,30.00,5,0,12,0.00